LFKBLFKJ

Guest
Details From LFKB - Bastia Poretta
To LFKJ - Napoleon Bonaparte
Flight Number -
Tags generated
Created
Modified
Stats Distance 51 nm / 94 km
Max Altitude 400 ft / 122 m
Waypoints 3
Social Downloads 2
Likes 0
Share

Download

Looking for another format? Having issues loading an existing format? Contact us
Advertisement - Login to hide

Notes

Basic altitude profile: - Ascent Rate: 800ft/min - Ascent Speed: 170kts - Cruise Altitude: 100000ft - Cruise Speed: 180kts - Descent Rate: 200ft/min - Descent Speed: 170kts Options: - Use NATs: yes - Use PACOTS: yes - Use low airways: yes - Use high airways: yes

Route

LFKB BTA LFKJ

ID Type Via Altitude (ft/m) Position (lat/lon) Dist (leg/tot) Name
O LFKB APT - 0 / 0 42.55251 / 9.48371 - / 0 nm Bastia Poretta
BTA VOR - 400 / 122 42.57369 / 9.47459 1 / 1 nm BASTIA PORETTA VOR-DME
O LFKJ APT - 0 / 0 41.92289 / 8.79959 49 / 50 nm Napoleon Bonaparte

Altitude Profile

Advertisement - Login to hide

LFKB

Details ICAO LFKB (BIA)
Name Bastia Poretta
Region France
Timezone Europe/Paris (UTC+2.0)
Stats Elevation 24 ft / 7 m (AMSL)
Location 42.552600° 9.483750°
Runways 1
Magnetic Variation 2.753° E

METAR

LFKB 050300Z AUTO 20008KT 9999 FEW094 BKN240 18/12 Q0997 NOSIG

Decode

TAF

TAF LFKB 050200Z 0503/0603 22008KT 9999 SCT090 TX25/0512Z TN16/0504Z BECMG 0508/0510 11010KT BECMG 0518/0520 23005KT

Decode

Departure Runways

ID Width Length Bearing (true/mag) Surface Threshold Overrun Markings Lighting
16 148 ft / 45 m 8,273 ft / 2,522 m 162.83° / 160.08° ASPHALT 0 ft / 0 m 102 ft / 31 m APP CENTERLINE EDGE THRESHOLD TDZ REIL-OMNI
34 148 ft / 45 m 8,273 ft / 2,522 m 342.84° / 340.09° ASPHALT 0 ft / 0 m 0 ft / 0 m PREC-APP CENTERLINE EDGE THRESHOLD TDZ REIL-OMNI

LFKJ

Details ICAO LFKJ (AJA)
Name Napoleon Bonaparte
Region France
Timezone Europe/Paris (UTC+2.0)
Stats Elevation 19 ft / 6 m (AMSL)
Location 41.921700° 8.801090°
Runways 1
Magnetic Variation 2.595° E

METAR

LFKJ 050300Z AUTO 26008KT 9999 FEW029/// SCT100/// ///CB 19/14 Q1000 TEMPO SHRA

Decode

TAF

TAF LFKJ 050200Z 0503/0603 28012KT 9999 SCT030 BKN060 PROB30 TEMPO 0503/0507 SHRA SCT030TCU BECMG 0518/0520 05005KT

Decode

Destination Runways

ID Width Length Bearing (true/mag) Surface Threshold Overrun Markings Lighting
02 148 ft / 45 m 7,904 ft / 2,409 m 24.84° / 22.25° CONCRETE 0 ft / 0 m 161 ft / 49 m PREC-APP CENTERLINE EDGE THRESHOLD REIL-OMNI
20 148 ft / 45 m 7,904 ft / 2,409 m 204.85° / 202.25° CONCRETE 741 ft / 226 m 230 ft / 70 m PREC-APP CENTERLINE EDGE THRESHOLD REIL-OMNI

Approach Navaids

Runway Type Ident Frequency Range Bearing (true/mag) Slope Elevation
02 GS AC 110.30 MHz 10 nm / 19 km 24.85° / 22.26 ° 3.00° 19 ft / 6 m (AMSL)
02 LOC-ILS AC 110.30 MHz 18 nm / 33 km 24.85° / 22.26 ° - 19 ft / 6 m (AMSL)
02 OM OM - - 24.94° / 22.35 ° - 17 ft / 5 m (AMSL)
02 DME AC 110.30 MHz 27 nm / 50 km - - 18 ft / 5 m (AMSL)

Popular Alternatives